Overview Statistics Trail Chart Weather Telemetry Raw packets
 

This is the latest recevied telemetry packets stored in our database for station/object DG4OP-12. If no packets are shown the sender has not sent any telemetry packets the latest 10 day(s).

Telemetry packets is used to share measurements like repeteater parameters, battery voltage, radiation readings (or any other measurements).

<< 1 2 3 4 >>
Time Press* Temp.in* Hum* QNH* Temp.out*
1788315087 1014.5 hPa 19.7 C deg 61.9 % 1020.5 hPa 0 C deg
1788315087 1014.5 hPa 19.7 C deg 61.9 % 1020.5 hPa 0 C deg
1788313272 1014.4 hPa 19.7 C deg 61.9 % 1020.3 hPa 0 C deg
1788313272 1014.4 hPa 19.7 C deg 61.9 % 1020.3 hPa 0 C deg
1788311456 1014 hPa 19.7 C deg 62 % 1019.9 hPa 0 C deg
1788311456 1014 hPa 19.7 C deg 62 % 1019.9 hPa 0 C deg
1788309641 1013.9 hPa 19.7 C deg 62 % 1019.8 hPa 0 C deg
1788309641 1013.9 hPa 19.7 C deg 62 % 1019.8 hPa 0 C deg
1788307826 1014.5 hPa 19.8 C deg 62.1 % 1020.4 hPa 0 C deg
1788307826 1014.5 hPa 19.8 C deg 62.1 % 1020.4 hPa 0 C deg
1788306010 1014.6 hPa 19.8 C deg 62.1 % 1020.5 hPa 0 C deg
1788306010 1014.6 hPa 19.8 C deg 62.1 % 1020.5 hPa 0 C deg
1788304200 1014.6 hPa 19.8 C deg 62.2 % 1020.6 hPa 0 C deg
1788304195 1014.6 hPa 19.8 C deg 62.2 % 1020.6 hPa 0 C deg
1788302379 1014.5 hPa 19.8 C deg 62.4 % 1020.5 hPa 0 C deg
1788302379 1014.5 hPa 19.8 C deg 62.4 % 1020.5 hPa 0 C deg
1788300559 1014.4 hPa 19.8 C deg 62.6 % 1020.3 hPa 0 C deg
1788300559 1014.4 hPa 19.8 C deg 62.6 % 1020.3 hPa 0 C deg
1788298757 1014.2 hPa 19.9 C deg 62.6 % 1020.1 hPa 0 C deg
1788298757 1014.2 hPa 19.9 C deg 62.6 % 1020.1 hPa 0 C deg
1788296919 1014.1 hPa 19.9 C deg 62.8 % 1020 hPa 0 C deg
1788296919 1014.1 hPa 19.9 C deg 62.8 % 1020 hPa 0 C deg
1788295104 1014.2 hPa 19.9 C deg 63 % 1020.1 hPa 0 C deg
1788295104 1014.2 hPa 19.9 C deg 63 % 1020.1 hPa 0 C deg
1788293288 1014 hPa 20.1 C deg 62.9 % 1019.9 hPa 0 C deg
*Used Equation Coefficients:
Press: 0, 1, 0
Temp.in: 0, 1, 0
Hum: 0, 1, 0
QNH: 0, 1, 0
Temp.out: 0, 1, 0

  • The parameter names for the analog channels will be Value1, Value2, Value3 (up to Value5) if station has not sent a PARAM-packet that specifies the parameter names for each analog channel.
  • Each analog value is a decimal number between 000 and 255 (according to APRS specifications). The receiver use the telemetry equation coefficientsto to restore the original sensor values. If no EQNS-packet with equation coefficients is sent we will show the values as is (this corresponds to the equation coefficients a=0, b=1 and c=0).
    The sent equation coefficients is used in the equation: a * value2 + b * value + c.
  • The units for the analog values will not be shown if station has not sent a UNIT-packet specifying what unit's to use.
  • The parameter names for the digital bits will be Bit1, Bit2, Bit3 (up to Bit8) if station has not sent a PARAM-packet that specifies the parameter names for each digital bit.
  • All bit labels will be named "On" if station has not sent a UNIT-packet that specifies the label of each bit.
  • A bit is considered to be On when the bit is 1 if station has not sent a BITS-packet that specifies another "Bit sense" (a BITS-packet specify the state of the bits that match the BIT labels)